Domov               UVHVVR             MKGP            O straneh              
ZDRAVSTVENO VARSTVO RASTLIN
  MREŽA AGROMET. POSTAJ
 ► PROGNOSTIČNA OBVESTILA
AGROMETEOROLOŠKI PODATKI -
ARSO
OBVLADOVANJE TVEGANJ ZARADI
NEUGODNIH VREMENSKIH RAZMER
  ► NARAVNE NESREČE
  ► SUŠA/MOČA
  ► NAMAKANJE
  ► ŽLED (gozdarstvo)
KARTOGRAFSKI PRIKAZI
SPLETNE POVEZAVE
PROJEKTI IN PUBLIKACIJE

AGROMETEOROLOŠKA MREŽA: VREMENSKE POSTAJE IN FENOLOŠKA OPAZOVANJA

Pregled podatkov za lokacijo Šlovrenc, meteorološka postaja 859088

Pregled senzorjev na lokaciji

ID Ime Zadnja
vrednost
Datum
zadnje
spremembe
Tip
senzorja
3973 Temperatura 2 m (°C) 8,21 °C 15.12.2017 20:00 50YA
3974 Relativna vlaga 2 m (% RH) 97,14 % RH 15.12.2017 20:00 50YA
3975 Omočenost lista (U) 0 U 16.11.2017 05:00 A730WET
3976 Padavine (mm) 0 mm 15.12.2017 20:00 Rain-O-Matic

Pregled podatkov zadnjih 24 ur

Zap.
št.
Datum in čas Šlovrenc
Omočenost
lista
Padavine Relativna
vlaga
2
m
Temperatura
2
m
0 15.12.2017 20:00 0 97,14 8,21
1 15.12.2017 19:30 0 97,47 8,39
2 15.12.2017 19:00 0 96,84 8,45
3 15.12.2017 18:30 0 97,67 8,45
4 15.12.2017 18:00 0 97,59 8,54
5 15.12.2017 17:30 0 97,15 8,62
6 15.12.2017 17:00 0 95,25 9,24
7 15.12.2017 16:30 0 97,38 9,35
8 15.12.2017 16:00 0 98,75 9,5
9 15.12.2017 15:30 0 97,72 9,69
10 15.12.2017 15:00 0 96,06 10
11 15.12.2017 14:30 0 93,7 10,39
12 15.12.2017 14:00 0,2 93,36 10,95
13 15.12.2017 13:30 0 89,14 11,42
14 15.12.2017 13:00 0 87,3 11,5
15 15.12.2017 12:30 0 87,14 11,35
16 15.12.2017 12:00 0 87,33 10,97
17 15.12.2017 11:30 0 93,81 10,47
18 15.12.2017 11:00 0 100 9,27
19 15.12.2017 10:30 0 100 8,62
20 15.12.2017 10:00 0 100 8,2
21 15.12.2017 09:30 0 100 7,95
22 15.12.2017 09:00 0,4 100 7,64
23 15.12.2017 08:30 0,2 100 7,58
24 15.12.2017 08:00 0 100 7,48
25 15.12.2017 07:30 0 100 7,22
26 15.12.2017 07:00 0 100 7,02
27 15.12.2017 06:30 0 100 6,82
28 15.12.2017 06:00 0,2 100 6,66
29 15.12.2017 05:30 0 100 6,66
30 15.12.2017 05:00 0 100 6,65
31 15.12.2017 04:30 0 100 6,54
32 15.12.2017 04:00 0 100 6,3
33 15.12.2017 03:30 0 100 6,22
34 15.12.2017 03:00 0 100 6,41
35 15.12.2017 02:30 0 100 6,16
36 15.12.2017 02:00 0 100 6,2
37 15.12.2017 01:30 0 100 6,12
38 15.12.2017 01:00 0 100 6,03
39 15.12.2017 00:30 0 100 6,04
40 15.12.2017 00:00 0 100 5,97
41 14.12.2017 23:30 0 100 5,8
42 14.12.2017 23:00 0 100 5,77
43 14.12.2017 22:30 0 100 5,71
44 14.12.2017 22:00 0 100 5,8
45 14.12.2017 21:30 0 100 5,79
46 14.12.2017 21:00 0 100 5,74
© 2011 Ministrstvo za kmetijstvo, gozdarstvo in prehrano. Vse pravice pridržane.